MDT,Max TemperatureF,Mean TemperatureF,Min TemperatureF,Max Dew PointF,MeanDew PointF,Min DewpointF,Max Humidity, Mean Humidity, Min Humidity, Max Sea Level PressureIn, Mean Sea Level PressureIn, Min Sea Level PressureIn, Max VisibilityMiles, Mean VisibilityMiles, Min VisibilityMiles, Max Wind SpeedMPH, Mean Wind SpeedMPH, Max Gust SpeedMPH,PrecipitationIn, CloudCover, Events, WindDirDegrees
2013-10-1,73,52,30,30,25,14,86,47,10,30.25,30.16,30.06,10,10,7,16,2,25,0.00,0,,249
2013-10-2,37,37,37,30,30,30,75,75,75,30.16,30.16,30.15,10,10,10,0,0,,0.00,0,,-1
2013-10-3,69,51,33,32,21,10,93,38,10,29.93,29.83,29.76,10,9,2,26,18,36,0.00,2,Snow,279
2013-10-4,33,30,28,32,25,19,93,76,56,30.32,30.12,29.91,10,8,0,14,5,22,0.08,8,Snow-Thunderstorm,303
2013-10-5,44,34,24,25,21,10,86,63,27,30.50,30.40,30.30,10,9,2,12,4,,0.00,3,Snow,145
2013-10-6,59,40,21,32,23,16,93,65,27,30.54,30.47,30.40,10,10,7,7,1,,0.00,0,,178
2013-10-7,69,46,23,32,25,14,93,62,12,30.45,30.32,30.16,10,9,0,7,0,,0.00,1,Fog,136
2013-10-8,69,48,28,32,24,12,93,52,11,30.17,30.04,29.93,10,10,10,25,3,32,0.00,0,,251
2013-10-9,66,48,30,32,28,21,93,59,19,30.06,29.99,29.93,10,10,10,12,1,,0.00,3,,242
2013-10-10,53,43,33,34,32,30,93,79,44,29.99,29.84,29.70,10,10,3,28,2,33,0.06,4,Rain-Thunderstorm,239
2013-10-11,48,42,35,34,32,28,93,79,53,30.16,30.00,29.81,10,10,5,14,9,22,0.02,8,Rain,242
2013-10-12,53,40,28,34,28,19,93,71,28,30.25,30.19,30.14,10,8,0,14,3,20,0.01,3,Fog-Rain,252
2013-10-13,62,43,24,34,26,21,93,61,20,30.23,30.12,29.99,10,10,7,18,1,26,0.00,2,Thunderstorm,218
2013-10-14,42,38,33,36,32,27,93,79,57,30.21,30.07,29.96,10,10,5,16,5,23,0.14,8,Rain-Thunderstorm,290
2013-10-15,42,37,32,32,24,19,93,65,39,30.26,30.20,30.14,10,10,10,13,4,16,0.00,7,Snow,334
2013-10-16,46,35,24,25,21,16,86,62,29,30.22,30.18,30.13,10,10,10,13,4,18,0.00,4,,331
2013-10-17,50,36,23,30,21,16,93,64,26,30.22,30.12,30.04,10,10,4,15,3,24,0.00,5,Snow,310
2013-10-18,41,32,23,32,20,10,93,63,29,30.28,30.19,30.06,10,9,1,17,5,24,0.00,4,Snow,306
2013-10-19,53,34,14,21,17,12,93,55,21,30.30,30.21,30.12,10,10,10,16,3,21,0.00,0,,246
2013-10-20,50,37,23,32,24,18,93,66,37,30.19,30.11,30.05,10,10,10,22,5,29,0.00,4,Rain,308
2013-10-21,50,39,28,28,25,18,93,70,28,30.34,30.27,30.18,10,10,7,14,2,,0.00,4,Snow,328
2013-10-22,59,39,19,27,22,14,93,62,23,30.42,30.34,30.26,10,10,7,7,1,,0.00,0,,234
2013-10-23,60,40,19,27,22,18,93,60,19,30.38,30.31,30.23,10,10,7,9,1,,0.00,0,,350
2013-10-24,62,40,19,25,20,10,93,58,13,30.39,30.31,30.22,10,10,10,6,0,,0.00,0,,334
2013-10-25,60,40,19,27,19,12,93,53,15,30.39,30.32,30.22,10,10,7,10,1,16,0.00,1,,327
2013-10-26,60,40,21,25,19,12,86,54,15,30.47,30.38,30.32,10,10,10,10,1,,0.00,0,,50
2013-10-27,60,38,17,23,18,10,86,53,16,30.34,30.15,29.99,10,10,7,18,2,25,0.00,1,,243
2013-10-28,60,43,26,25,19,10,86,49,15,30.00,29.91,29.83,10,10,7,13,2,23,0.00,3,,175
2013-10-29,53,42,30,32,22,9,93,56,18,29.96,29.91,29.86,10,8,1,26,6,32,0.30,3,Rain-Snow,239
2013-10-30,35,30,26,32,27,23,93,84,60,29.99,29.95,29.89,10,7,0,14,2,18,0.32,7,Fog-Snow,298
2013-10-31,37,32,26,30,25,21,93,76,60,30.10,30.05,29.98,10,10,3,17,4,23,0.00,8,Snow,247